TimePST,TemperatureF,Dew PointF,Humidity,Sea Level PressureIn,VisibilityMPH,Wind Direction,Wind SpeedMPH,Gust SpeedMPH,PrecipitationIn,Events,Conditions,WindDirDegrees,DateUTC
12:53 AM,41.0,37.0,86,30.11,10.0,Calm,Calm,-,N/A,,Overcast,0,2013-02-21 08:53:00
1:53 AM,41.0,37.0,86,30.13,10.0,SSW,4.6,-,0.00,,Overcast,210,2013-02-21 09:53:00
2:53 AM,41.0,37.9,89,30.14,10.0,South,5.8,-,0.01,,Overcast,180,2013-02-21 10:53:00
3:53 AM,41.0,37.9,89,30.15,10.0,South,3.5,-,0.01,Rain,Light Rain,180,2013-02-21 11:53:00
4:53 AM,41.0,37.9,89,30.15,10.0,South,3.5,-,0.00,,Overcast,180,2013-02-21 12:53:00
5:53 AM,39.9,37.0,89,30.17,10.0,South,6.9,-,N/A,,Mostly Cloudy,190,2013-02-21 13:53:00
6:53 AM,39.9,36.0,86,30.17,10.0,SSW,5.8,-,N/A,,Overcast,200,2013-02-21 14:53:00
7:53 AM,41.0,36.0,82,30.19,10.0,SSW,8.1,-,N/A,,Overcast,200,2013-02-21 15:53:00
8:53 AM,42.1,37.0,82,30.19,10.0,South,5.8,-,0.00,Rain,Light Rain,170,2013-02-21 16:53:00
9:53 AM,43.0,37.0,80,30.19,10.0,South,9.2,-,0.00,,Overcast,180,2013-02-21 17:53:00
10:53 AM,44.1,37.9,79,30.19,10.0,SSW,10.4,-,N/A,,Overcast,200,2013-02-21 18:53:00
11:53 AM,44.1,39.0,82,30.19,6.0,SSW,11.5,-,0.00,Rain,Light Rain,210,2013-02-21 19:53:00
12:07 PM,44.6,39.2,81,30.19,8.0,SW,11.5,-,0.01,Rain,Light Rain,220,2013-02-21 20:07:00
12:53 PM,44.1,39.0,82,30.17,10.0,South,12.7,18.4,0.01,,Overcast,190,2013-02-21 20:53:00
1:28 PM,44.6,39.2,81,30.16,10.0,South,11.5,19.6,N/A,,Overcast,190,2013-02-21 21:28:00
1:53 PM,45.0,39.0,80,30.16,10.0,South,11.5,-,N/A,,Overcast,180,2013-02-21 21:53:00
2:53 PM,45.0,39.0,80,30.15,10.0,SSW,15.0,-,N/A,,Overcast,200,2013-02-21 22:53:00
3:53 PM,46.0,37.9,73,30.15,10.0,SSW,13.8,-,N/A,,Overcast,200,2013-02-21 23:53:00
4:20 PM,44.6,37.4,76,30.15,10.0,SSW,16.1,21.9,N/A,,Overcast,210,2013-02-22 00:20:00
4:53 PM,45.0,39.0,80,30.14,10.0,SSW,15.0,21.9,0.00,,Overcast,200,2013-02-22 00:53:00
5:53 PM,45.0,39.0,80,30.14,10.0,SSW,10.4,-,N/A,,Overcast,210,2013-02-22 01:53:00
6:19 PM,44.6,37.4,76,30.15,10.0,SSW,16.1,19.6,N/A,,Overcast,200,2013-02-22 02:19:00
6:53 PM,45.0,37.9,76,30.16,10.0,SSW,9.2,17.3,N/A,,Overcast,210,2013-02-22 02:53:00
7:53 PM,45.0,39.0,80,30.15,10.0,SW,10.4,-,N/A,,Overcast,220,2013-02-22 03:53:00
8:53 PM,44.1,39.0,82,30.15,10.0,SSW,12.7,-,N/A,,Overcast,210,2013-02-22 04:53:00
9:53 PM,44.1,39.0,82,30.18,10.0,SSW,9.2,-,N/A,,Overcast,210,2013-02-22 05:53:00
11:53 PM,44.1,39.0,82,30.17,10.0,SSW,11.5,-,N/A,,Overcast,200,2013-02-22 07:53:00